Location: Krakow
(50.0830°N, 19.9170°E)
Time: 16:16:03
(UTC+02:00)

Vanguard 1 Rocket - All Passes

Search period start: 11 September 2024 00:00
Search period end: 21 September 2024 00:00
Orbit: 649 x 4220 km, 34.3° (Epoch: 10 September)

Date Brightness Start Highest point End Pass type
(mag) Time Alt. Az. Time Alt. Az. Time Alt. Az.
11 Sep - 03:02:41 10° S 03:14:05 22° SE 03:29:22 10° E visible
11 Sep - 05:22:54 10° SW 05:40:17 45° SSE 06:03:36 10° E visible
11 Sep - 07:48:20 10° WSW 08:09:58 53° S 08:33:22 10° ESE daylight
11 Sep - 10:17:23 10° W 10:39:41 41° SSW 10:59:00 10° SSE daylight
11 Sep - 12:52:25 10° W 13:05:59 18° SW 13:17:28 10° SSW daylight
12 Sep - 01:57:18 10° SE 02:02:09 12° ESE 02:07:40 10° ESE visible
12 Sep - 04:11:46 10° SSW 04:26:25 36° SE 04:47:22 10° E visible
12 Sep - 06:35:16 10° WSW 06:54:43 52° S 07:18:58 10° ESE daylight
12 Sep - 09:02:34 10° W 09:24:55 48° SSW 09:46:42 10° SE daylight
12 Sep - 11:33:58 10° W 11:53:00 28° SW 12:09:05 10° S daylight
13 Sep - 03:01:51 10° S 03:13:30 26° SE 03:30:02 10° E visible
13 Sep - 05:23:03 10° SW 05:39:58 47° SSE 06:03:38 10° E visible
13 Sep - 07:48:40 10° WSW 08:09:42 52° S 08:33:20 10° ESE daylight
13 Sep - 10:17:49 10° W 10:39:08 37° SSW 10:58:27 10° SSE daylight
13 Sep - 12:54:54 10° W 13:05:07 14° WSW 13:14:20 10° SSW daylight
14 Sep - 01:54:17 10° SSE 02:01:29 15° ESE 02:10:32 10° E visible
14 Sep - 04:11:42 10° SSW 04:26:02 39° SSE 04:47:27 10° E visible
14 Sep - 06:35:37 10° WSW 06:54:31 52° S 07:18:54 10° ESE daylight
14 Sep - 09:02:58 10° W 09:24:31 45° SSW 09:46:23 10° SE daylight
14 Sep - 11:34:56 10° W 11:52:15 24° SW 12:07:37 10° S daylight
15 Sep - 03:01:24 10° S 03:13:02 29° SE 03:30:24 10° E visible
15 Sep - 05:23:20 10° SW 05:39:46 49° SSE 06:03:34 10° ESE visible
15 Sep - 07:49:06 10° WSW 08:09:27 50° SSW 08:33:06 10° SE daylight
15 Sep - 10:18:23 10° W 10:38:32 33° SW 10:57:34 10° SSE daylight
15 Sep - 13:01:15 10° WSW 13:04:13 10° WSW 13:07:07 10° SW daylight
16 Sep - 01:52:47 10° SSE 02:00:56 18° SE 02:11:58 10° E visible
16 Sep - 04:11:51 10° SW 04:25:47 42° SSE 04:47:25 10° E visible
16 Sep - 06:36:03 10° WSW 06:54:21 52° S 07:18:43 10° ESE daylight
16 Sep - 09:03:28 10° W 09:24:05 41° SSW 09:45:47 10° SSE daylight
16 Sep - 11:36:24 10° W 11:51:27 20° SW 12:05:26 10° SSW daylight
17 Sep - 03:01:16 10° SSW 03:12:42 32° SE 03:30:34 10° E visible
17 Sep - 05:23:45 10° WSW 05:39:38 50° S 06:03:23 10° ESE visible
17 Sep - 07:49:36 10° W 08:09:11 47° SSW 08:32:40 10° SE daylight
17 Sep - 10:19:12 10° W 10:37:53 29° SW 10:56:16 10° S daylight
18 Sep - 01:51:58 10° S 02:00:31 21° SE 02:12:48 10° E visible
18 Sep - 04:12:10 10° SW 04:25:37 44° SSE 04:47:17 10° E visible
18 Sep - 06:36:34 10° WSW 06:54:12 50° S 07:18:23 10° ESE daylight
18 Sep - 09:04:05 10° W 09:23:38 37° SSW 09:44:54 10° SSE daylight
18 Sep - 11:38:48 10° W 11:50:38 16° SW 12:02:04 10° SSW daylight
19 Sep - 00:47:20 10° SE 00:49:04 10° ESE 00:50:55 10° ESE visible
19 Sep - 03:01:22 10° SSW 03:12:29 35° SSE 03:30:35 10° E visible
19 Sep - 05:24:15 10° WSW 05:39:34 50° S 06:03:06 10° ESE visible
19 Sep - 07:50:11 10° W 08:08:54 44° SSW 08:32:02 10° SE daylight
19 Sep - 10:20:21 10° W 10:37:13 24° SW 10:54:24 10° S daylight
20 Sep - 01:51:36 10° S 02:00:13 24° SE 02:13:17 10° E visible
20 Sep - 04:12:36 10° SW 04:25:34 45° SSE 04:47:03 10° ESE visible
20 Sep - 06:37:09 10° WSW 06:54:05 48° S 07:17:53 10° SE daylight
20 Sep - 09:04:53 10° W 09:23:09 33° SW 09:43:39 10° SSE daylight
20 Sep - 11:43:46 10° WSW 11:49:50 11° WSW 11:55:52 10° SW daylight
